Home > Weather > Augsburg > Past weeks

Flag for Germany Past Weather in Augsburg, Bavaria, Germany — Yesterday and Last 2 Weeks

Now
75 °F

Scattered clouds.


Feels Like: 78 °F
Forecast: 58 / 71 °F
Wind: 2 mph from North

Location: Augsburg Airport

Current Time: Jun 29, 2016 at 4:39:39 PM

Latest Report: Jun 29, 2016 at 3:50 PM


Visibility: N/A

Pressure: 30.01 "Hg

Humidity: 47%

Dew Point: 54 °F

Location of AugsburgLocation

Past Weather in Augsburg — Graph

°F

Augsburg Temperature Yesterday

Maximum temperature yesterday: 77 °F (at 5:50 PM)
Minimum temperature yesterday: 57 °F (at 5:50 AM)
Average temperature yesterday: 70 °F

High & Low Weather Summary for the Past Weeks

 TemperatureHumidityPressure
High90 °F (Jun 24, 2:50 PM)100% (Jun 15, 5:50 AM)30.30 "Hg (Jun 15, 5:50 AM)
Low50 °F (Jun 17, 6:50 AM)31% (Jun 23, 3:20 PM)29.56 "Hg (Jun 14, 3:20 PM)
Average68 °F61%30.02 "Hg
* Reported Jun 14 3:20 PM — Jun 29 3:20 PM, Augsburg, Weather by CustomWeather, © 2016

Note: Actual official high and low records may vary slightly from our data, if they occured in-between our weather recording intervals... More about our weather records

Advertising

Augsburg Weather History for the Previous 24 Hours

Scroll right to see more
 ConditionsComfort  
Time TempWeatherWind HumidityBarometerVisibility
3:20 PM
Wed, Jun 29
75 °FPassing clouds.2 mph50%30.01 "HgN/A
2:50 PM75 °FPassing clouds.8 mph47%30.01 "HgN/A
2:20 PM75 °FPassing clouds.7 mph50%30.01 "HgN/A
1:50 PM77 °FPassing clouds.10 mph44%30.01 "HgN/A
1:20 PM73 °FPartly sunny.8 mph50%30.01 "HgN/A
12:50 PM73 °FScattered clouds.9 mph50%30.01 "HgN/A
12:20 PM73 °FScattered clouds.8 mph50%30.04 "HgN/A
11:50 AM73 °FScattered clouds.10 mph47%30.04 "HgN/A
11:20 AM72 °FScattered clouds.12 mph50%30.01 "HgN/A
10:50 AM73 °FScattered clouds.12 mph50%30.04 "HgN/A
10:20 AM72 °FPassing clouds.13 mph50%30.04 "HgN/A
9:50 AM72 °FPassing clouds.12 mph53%30.04 "HgN/A
9:20 AM72 °FPassing clouds.10 mph53%30.04 "HgN/A
8:50 AM70 °FSunny.12 mph57%30.04 "Hg10 mi
8:20 AM68 °FSunny.10 mph64%30.01 "Hg10 mi
7:50 AM66 °FSunny.9 mph68%30.01 "Hg10 mi
7:20 AM64 °FSunny.6 mph73%30.01 "Hg10 mi
6:50 AM63 °FSunny.6 mph77%30.01 "Hg10 mi
6:20 AM63 °FSunny.3 mph77%30.01 "Hg10 mi
8:50 PM
Tue, Jun 28
68 °FSunny.5 mph64%30.01 "Hg10 mi
8:20 PM70 °FSunny.6 mph57%29.98 "Hg10 mi
7:50 PM75 °FSunny.3 mph47%30.01 "Hg10 mi
7:20 PM75 °FSunny.3 mph47%30.01 "Hg10 mi
6:50 PM77 °FSunny.1 mph39%30.01 "Hg10 mi
6:20 PM77 °FSunny.2 mph39%30.01 "Hg10 mi
5:50 PM77 °FSunny.1 mph36%30.01 "Hg10 mi
5:20 PM75 °FSunny.2 mph41%30.04 "Hg10 mi
4:50 PM75 °FSunny.2 mph41%30.04 "Hg10 mi
4:20 PM75 °FSunny.2 mph41%30.04 "Hg10 mi
Weather by CustomWeather, © 2016

See weather overviewHow to use our weather pages